Location: Alexandria
(38.8050°N, 77.0470°W)
Time: 13:51:14
(UTC-04:00)

Vanguard 1 Rocket - All Passes

Search period start: 20 May 2018 00:00
Search period end: 30 May 2018 00:00
Orbit: 652 x 4225 km, 34.3° (Epoch: 19 May)

Date Brightness Start Highest point End Pass type
(mag) Time Alt. Az. Time Alt. Az. Time Alt. Az.
20 May - 00:42:00 10° SW 00:59:05 62° SSE 01:24:34 10° E visible
20 May - 03:08:49 10° W 03:31:29 79° S 03:56:48 10° E visible
20 May - 05:39:15 10° W 06:04:55 67° SSW 06:25:23 10° SE daylight
20 May - 08:13:22 10° W 08:34:10 35° SW 08:48:45 10° SSE daylight
20 May - 21:14:40 10° SE 21:20:42 14° ESE 21:28:08 10° E visible
20 May - 23:31:30 10° SSW 23:45:46 48° SE 00:08:40 10° ENE visible
21 May - 01:56:20 10° WSW 02:16:04 75° SSE 02:42:27 10° E visible
21 May - 04:25:06 10° W 04:49:44 75° SSW 05:13:02 10° ESE visible
21 May - 06:57:07 10° WNW 07:21:14 49° SW 07:38:58 10° SSE daylight
21 May - 09:36:39 10° W 09:47:44 16° WSW 09:56:41 10° SSW daylight
21 May - 22:22:09 10° S 22:33:39 33° SE 22:51:52 10° E visible
22 May - 00:44:44 10° SW 01:01:28 67° SSE 01:27:17 10° E visible
22 May - 03:11:47 10° W 03:34:07 79° S 03:59:38 10° ESE visible
22 May - 05:42:05 10° W 06:07:11 62° SSW 06:27:55 10° SE daylight
22 May - 08:16:48 10° W 08:35:56 29° SW 08:50:13 10° S daylight
22 May - 21:14:39 10° SSE 21:22:31 18° ESE 21:33:25 10° E visible
22 May - 23:34:00 10° SW 23:47:59 54° SSE 00:11:24 10° E visible
23 May - 01:59:17 10° WSW 02:18:42 78° S 02:45:14 10° E visible
23 May - 04:28:01 10° W 04:52:13 71° SSW 05:15:43 10° ESE visible
23 May - 07:00:07 10° WNW 07:23:10 42° SW 07:40:58 10° SSE daylight
23 May - 09:44:48 10° WSW 09:49:24 11° WSW 09:53:39 10° SW daylight
23 May - 22:24:15 10° SSW 22:35:41 39° SE 22:54:54 10° E visible
24 May - 00:47:36 10° WSW 01:04:00 72° SSE 01:29:59 10° E visible
24 May - 03:14:46 10° W 03:36:44 77° S 04:02:23 10° ESE visible
24 May - 05:45:00 10° W 06:09:21 56° SSW 06:30:14 10° SE daylight
24 May - 08:20:48 10° W 08:37:38 23° SW 08:51:03 10° S daylight
24 May - 21:15:52 10° S 21:24:27 24° SE 21:37:28 10° E visible
24 May - 23:36:42 10° SW 23:50:21 60° SSE 00:14:05 10° E visible
25 May - 02:02:19 10° W 02:21:22 78° S 02:47:58 10° E visible
25 May - 04:30:57 10° W 04:54:36 66° SSW 05:18:14 10° SE visible
25 May - 07:03:19 10° W 07:25:00 36° SW 07:42:37 10° SSE daylight
25 May - 20:13:08 10° ESE 20:13:57 10° ESE 20:14:48 10° ESE daylight
25 May - 22:26:40 10° SSW 22:37:53 45° SE 22:57:44 10° E visible
26 May - 00:50:35 10° WSW 01:06:38 75° SSE 01:32:39 10° E visible
26 May - 03:17:47 10° W 03:39:19 74° SSW 04:05:02 10° ESE visible
26 May - 05:47:58 10° W 06:11:23 49° SW 06:32:17 10° SSE daylight
26 May - 08:25:45 10° W 08:39:18 18° SW 08:50:53 10° SSW daylight
26 May - 21:17:40 10° S 21:26:30 29° SE 21:40:55 10° E visible
26 May - 23:39:34 10° WSW 23:52:53 66° SSE 00:16:43 10° E visible
27 May - 02:05:23 10° W 02:24:04 78° S 02:50:40 10° ESE visible
27 May - 04:33:55 10° W 04:56:53 61° SSW 05:20:33 10° SE visible
27 May - 07:06:53 10° W 07:26:46 30° SW 07:43:46 10° S daylight
27 May - 20:10:51 10° SSE 20:15:57 15° ESE 20:22:34 10° E daylight
27 May - 22:29:18 10° SW 22:40:15 52° SSE 23:00:27 10° E visible
28 May - 00:53:39 10° WSW 01:09:22 77° S 01:35:19 10° E visible
28 May - 03:20:50 10° W 03:41:51 70° SSW 04:07:31 10° ESE visible
28 May - 05:51:07 10° W 06:13:21 43° SW 06:34:01 10° SSE daylight
28 May - 08:33:02 10° WSW 08:41:02 12° WSW 08:48:24 10° SW daylight
28 May - 21:19:53 10° SSW 21:28:41 35° SE 21:44:01 10° E visible
28 May - 23:42:34 10° WSW 23:55:33 70° SSE 00:19:21 10° E visible
29 May - 02:08:29 10° W 02:26:47 76° S 02:53:16 10° ESE visible
29 May - 04:36:58 10° W 04:59:05 55° SSW 05:22:37 10° SE visible
29 May - 07:11:00 10° W 07:28:32 24° SW 07:44:17 10° S daylight
29 May - 20:11:53 10° S 20:18:03 19° SE 20:27:00 10° E daylight
29 May - 22:32:07 10° SW 22:42:47 58° SSE 23:03:07 10° E visible
